�������l�o���
Date,Time,MP-1(��Sv/h),MP-2(��Sv/h),MP-3(��Sv/h),MP-4(��Sv/h),MP-5(��Sv/h),MP-6(��Sv/h),MP-7(��Sv/h),MP-8(��Sv/h),����,����(m/s),���J
2022/08/13,00:00,0.606,0.861,0.541,1.028,0.747,0.346,0.597,0.561,��,11.9,��
2022/08/13,00:10,0.609,0.861,0.541,1.029,0.748,0.345,0.598,0.561,��,11.6,��
2022/08/13,00:20,0.609,0.862,0.542,1.028,0.747,0.346,0.597,0.559,��,12.2,��
2022/08/13,00:30,0.608,0.863,0.539,1.030,0.749,0.345,0.596,0.560,��,10.4,��
2022/08/13,00:40,0.607,0.862,0.541,1.030,0.746,0.345,0.596,0.561,��,9.9,��
2022/08/13,00:50,0.606,0.865,0.541,1.029,0.749,0.345,0.597,0.560,��,8.2,��
2022/08/13,01:00,0.607,0.862,0.540,1.030,0.747,0.345,0.596,0.559,��,9.4,��
2022/08/13,01:10,0.606,0.862,0.541,1.029,0.748,0.345,0.595,0.558,��쐼,8.9,��
2022/08/13,01:20,0.605,0.862,0.541,1.029,0.748,0.346,0.597,0.560,��,7.7,��
2022/08/13,01:30,0.607,0.862,0.543,1.029,0.747,0.345,0.596,0.561,��,8.3,��
2022/08/13,01:40,0.606,0.861,0.543,1.028,0.746,0.345,0.597,0.559,��,8.0,��
2022/08/13,01:50,0.605,0.863,0.542,1.030,0.749,0.345,0.596,0.561,��,6.8,��
2022/08/13,02:00,0.605,0.863,0.542,1.029,0.747,0.343,0.597,0.561,��,6.9,��
2022/08/13,02:10,0.605,0.862,0.543,1.030,0.748,0.345,0.596,0.559,��,6.5,��
2022/08/13,02:20,0.604,0.862,0.541,1.028,0.748,0.344,0.595,0.560,��,8.8,��
2022/08/13,02:30,0.605,0.861,0.542,1.030,0.745,0.345,0.596,0.561,��,8.5,��
2022/08/13,02:40,0.605,0.861,0.541,1.029,0.747,0.344,0.597,0.560,��,8.2,��
2022/08/13,02:50,0.606,0.861,0.542,1.029,0.750,0.344,0.595,0.559,��,8.8,��
2022/08/13,03:00,0.606,0.863,0.541,1.028,0.746,0.344,0.597,0.562,��,8.9,��
2022/08/13,03:10,0.608,0.862,0.542,1.030,0.748,0.344,0.598,0.561,��,9.7,��
2022/08/13,03:20,0.606,0.861,0.542,1.027,0.746,0.345,0.596,0.562,��,10.5,��
2022/08/13,03:30,0.607,0.863,0.540,1.028,0.745,0.345,0.595,0.560,��,9.9,��
2022/08/13,03:40,0.606,0.863,0.541,1.028,0.747,0.344,0.595,0.559,��,9.7,��
2022/08/13,03:50,0.605,0.862,0.540,1.028,0.747,0.344,0.595,0.561,��,9.8,��
2022/08/13,04:00,0.606,0.864,0.539,1.026,0.749,0.345,0.595,0.561,��,10.9,��
2022/08/13,04:10,0.606,0.862,0.541,1.030,0.746,0.343,0.597,0.561,��,11.3,�L
2022/08/13,04:20,0.604,0.864,0.540,1.029,0.746,0.344,0.596,0.562,��쓌,11.7,��
2022/08/13,04:30,0.604,0.863,0.542,1.028,0.746,0.344,0.596,0.561,��,11.6,��
2022/08/13,04:40,0.604,0.862,0.540,1.030,0.748,0.343,0.594,0.561,��,11.9,�L
2022/08/13,04:50,0.604,0.861,0.542,1.030,0.749,0.342,0.594,0.561,��,13.8,�L
2022/08/13,05:00,0.604,0.858,0.540,1.031,0.748,0.344,0.595,0.560,��,13.0,��
2022/08/13,05:10,0.605,0.861,0.541,1.030,0.746,0.343,0.597,0.561,��,14.1,��
2022/08/13,05:20,0.603,0.859,0.541,1.028,0.748,0.343,0.597,0.561,��,13.8,��
2022/08/13,05:30,0.603,0.859,0.539,1.030,0.747,0.345,0.594,0.561,��,12.0,��
2022/08/13,05:40,0.603,0.862,0.540,1.030,0.747,0.343,0.594,0.561,��,12.4,��
2022/08/13,05:50,0.603,0.859,0.539,1.029,0.746,0.343,0.596,0.561,��,12.2,��
2022/08/13,06:00,0.602,0.860,0.539,1.030,0.746,0.342,0.595,0.560,��,10.2,��
2022/08/13,06:10,0.603,0.862,0.540,1.029,0.747,0.341,0.595,0.560,��,10.7,�L
2022/08/13,06:20,0.603,0.859,0.542,1.029,0.748,0.342,0.597,0.561,��,10.0,��
2022/08/13,06:30,0.603,0.862,0.541,1.029,0.746,0.344,0.597,0.562,��,10.0,�L
2022/08/13,06:40,0.604,0.858,0.540,1.029,0.747,0.344,0.596,0.560,��,10.7,�L
2022/08/13,06:50,0.604,0.859,0.539,1.029,0.746,0.343,0.596,0.560,��,9.4,�L
2022/08/13,07:00,0.603,0.858,0.540,1.029,0.745,0.343,0.594,0.561,��,8.7,�L
2022/08/13,07:10,0.602,0.857,0.539,1.028,0.744,0.343,0.595,0.561,��,7.7,�L
2022/08/13,07:20,0.602,0.856,0.538,1.029,0.744,0.343,0.594,0.561,��,8.0,��
2022/08/13,07:30,0.603,0.856,0.539,1.029,0.749,0.343,0.594,0.562,��,7.9,��
2022/08/13,07:40,0.603,0.859,0.540,1.029,0.747,0.342,0.595,0.560,��,8.5,�L
2022/08/13,07:50,0.602,0.860,0.539,1.026,0.745,0.343,0.595,0.562,��,9.5,��
2022/08/13,08:00,0.604,0.858,0.539,1.029,0.746,0.343,0.596,0.563,��,10.7,��
2022/08/13,08:10,0.603,0.859,0.540,1.027,0.746,0.343,0.595,0.560,��,8.9,��
2022/08/13,08:20,0.605,0.859,0.540,1.029,0.746,0.344,0.596,0.559,��,8.4,��
2022/08/13,08:30,0.602,0.858,0.541,1.031,0.746,0.343,0.597,0.561,��,7.8,��
2022/08/13,08:40,0.603,0.859,0.539,1.028,0.746,0.343,0.596,0.561,��,7.2,�L
2022/08/13,08:50,0.603,0.858,0.540,1.028,0.747,0.343,0.597,0.560,��,8.4,�L
2022/08/13,09:00,0.603,0.858,0.541,1.030,0.747,0.344,0.597,0.561,��,7.2,��
2022/08/13,09:10,0.604,0.859,0.539,1.028,0.747,0.344,0.596,0.562,��,6.3,��
2022/08/13,09:20,0.604,0.856,0.539,1.027,0.748,0.344,0.596,0.559,��,4.7,��
2022/08/13,09:30,0.605,0.858,0.541,1.028,0.749,0.344,0.596,0.560,��,7.4,��
2022/08/13,09:40,0.603,0.860,0.540,1.029,0.748,0.344,0.596,0.561,��,6.8,��
2022/08/13,09:50,0.604,0.859,0.539,1.029,0.748,0.345,0.598,0.560,��,7.5,��
2022/08/13,10:00,0.603,0.861,0.540,1.031,0.748,0.345,0.596,0.561,��,9.0,��
2022/08/13,10:10,0.603,0.862,0.542,1.029,0.748,0.345,0.597,0.562,��,9.2,�L
2022/08/13,10:20,0.604,0.863,0.540,1.031,0.749,0.346,0.596,0.560,��,7.3,�L
2022/08/13,10:30,0.603,0.860,0.539,1.030,0.746,0.343,0.597,0.561,��,9.0,�L
2022/08/13,10:40,0.603,0.859,0.541,1.031,0.748,0.344,0.595,0.560,��,9.2,�L
2022/08/13,10:50,0.603,0.860,0.540,1.029,0.747,0.345,0.596,0.560,��,9.0,�L
2022/08/13,11:00,0.602,0.858,0.538,1.028,0.748,0.343,0.595,0.560,��,7.7,��
2022/08/13,11:10,0.603,0.858,0.539,1.030,0.748,0.346,0.595,0.562,��,6.8,�L
2022/08/13,11:20,0.603,0.859,0.540,1.031,0.749,0.344,0.594,0.561,��,8.9,��
2022/08/13,11:30,0.604,0.862,0.541,1.031,0.747,0.345,0.597,0.561,��,9.9,��
2022/08/13,11:40,0.604,0.861,0.540,1.028,0.749,0.345,0.595,0.562,��,11.3,��
2022/08/13,11:50,0.604,0.861,0.542,1.030,0.748,0.345,0.597,0.560,��,12.7,��
2022/08/13,12:00,0.603,0.860,0.541,1.031,0.747,0.345,0.595,0.560,��,13.0,��
2022/08/13,12:10,0.604,0.860,0.543,1.028,0.749,0.345,0.596,0.560,��,12.0,��
2022/08/13,12:20,0.604,0.861,0.541,1.031,0.750,0.345,0.597,0.560,��,11.3,��
2022/08/13,12:30,0.604,0.861,0.541,1.028,0.748,0.346,0.597,0.560,��,12.0,��
2022/08/13,12:40,0.606,0.862,0.541,1.031,0.749,0.347,0.597,0.559,��,13.0,��
2022/08/13,12:50,0.606,0.862,0.541,1.029,0.749,0.345,0.596,0.558,��,11.8,�L
2022/08/13,13:00,0.606,0.863,0.541,1.031,0.750,0.346,0.596,0.559,��,12.0,��
2022/08/13,13:10,0.606,0.863,0.540,1.030,0.747,0.345,0.595,0.559,��,12.4,��
2022/08/13,13:20,0.606,0.862,0.541,1.029,0.749,0.344,0.596,0.560,��,12.0,��
2022/08/13,13:30,0.606,0.864,0.540,1.032,0.747,0.345,0.596,0.561,��,11.4,��
2022/08/13,13:40,0.606,0.864,0.543,1.031,0.750,0.345,0.596,0.561,��,9.9,�L
2022/08/13,13:50,0.606,0.862,0.543,1.031,0.750,0.346,0.596,0.560,��,12.0,�L
2022/08/13,14:00,0.606,0.862,0.542,1.032,0.750,0.345,0.597,0.558,��쐼,10.7,�L
2022/08/13,14:10,0.608,0.863,0.542,1.031,0.751,0.347,0.596,0.561,��,10.0,�L
2022/08/13,14:20,0.608,0.866,0.543,1.030,0.752,0.345,0.597,0.561,��,11.0,�L
2022/08/13,14:30,0.608,0.863,0.541,1.030,0.751,0.347,0.596,0.559,��,8.7,�L
2022/08/13,14:40,0.606,0.865,0.543,1.030,0.749,0.344,0.597,0.558,��,7.5,��
2022/08/13,14:50,0.609,0.864,0.542,1.031,0.748,0.345,0.597,0.560,��,8.3,��
2022/08/13,15:00,0.608,0.861,0.541,1.033,0.747,0.344,0.596,0.560,��쐼,6.3,��
2022/08/13,15:10,0.607,0.863,0.542,1.031,0.749,0.346,0.597,0.559,��쐼,5.3,��
2022/08/13,15:20,0.606,0.863,0.541,1.029,0.748,0.346,0.595,0.560,��,6.3,�L
2022/08/13,15:30,0.610,0.863,0.542,1.033,0.750,0.346,0.597,0.561,��,6.2,��
2022/08/13,15:40,0.607,0.865,0.543,1.030,0.750,0.346,0.597,0.561,��,8.4,��
2022/08/13,15:50,0.608,0.863,0.543,1.032,0.751,0.347,0.597,0.563,��,9.9,��
2022/08/13,16:00,0.608,0.865,0.543,1.034,0.750,0.346,0.595,0.561,��,12.4,��
2022/08/13,16:10,0.608,0.865,0.543,1.034,0.752,0.346,0.598,0.563,��,10.3,��
2022/08/13,16:20,0.608,0.866,0.542,1.033,0.753,0.345,0.597,0.560,��,10.2,��
2022/08/13,16:30,0.609,0.865,0.544,1.033,0.751,0.345,0.597,0.563,��,9.5,��
2022/08/13,16:40,0.609,0.865,0.543,1.035,0.750,0.346,0.597,0.561,��쓌,8.5,��
2022/08/13,16:50,0.607,0.863,0.541,1.034,0.749,0.345,0.598,0.561,��,8.3,��
2022/08/13,17:00,0.605,0.863,0.541,1.034,0.751,0.345,0.597,0.562,��,8.5,��
2022/08/13,17:10,0.606,0.863,0.541,1.034,0.750,0.346,0.597,0.562,��,8.6,��
2022/08/13,17:20,0.606,0.862,0.541,1.033,0.750,0.345,0.595,0.562,��,10.4,��
2022/08/13,17:30,0.606,0.864,0.541,1.032,0.749,0.346,0.595,0.563,��,11.3,��
2022/08/13,17:40,0.606,0.865,0.542,1.032,0.748,0.344,0.595,0.562,��,9.4,��
2022/08/13,17:50,0.605,0.864,0.542,1.033,0.748,0.347,0.596,0.562,��,6.7,��
2022/08/13,18:00,0.603,0.865,0.542,1.032,0.751,0.345,0.595,0.562,��쓌,7.8,��
2022/08/13,18:10,0.605,0.863,0.543,1.034,0.751,0.347,0.595,0.561,��,6.3,��
2022/08/13,18:20,0.603,0.865,0.541,1.033,0.751,0.345,0.596,0.564,��쓌,6.7,��
2022/08/13,18:30,0.604,0.862,0.541,1.036,0.749,0.345,0.595,0.562,��,5.4,��
2022/08/13,18:40,0.605,0.863,0.541,1.035,0.749,0.346,0.596,0.562,��,6.2,��
2022/08/13,18:50,0.604,0.861,0.543,1.034,0.750,0.344,0.597,0.564,��,7.1,�L
2022/08/13,19:00,0.604,0.864,0.542,1.033,0.750,0.344,0.596,0.562,��,5.9,��
2022/08/13,19:10,0.604,0.863,0.541,1.034,0.751,0.345,0.597,0.561,��,7.1,��
2022/08/13,19:20,0.603,0.863,0.542,1.033,0.749,0.343,0.595,0.562,��,9.3,��
2022/08/13,19:30,0.605,0.862,0.540,1.034,0.749,0.346,0.596,0.562,��,9.3,��
2022/08/13,19:40,0.606,0.864,0.540,1.034,0.748,0.344,0.596,0.563,��,11.1,��
2022/08/13,19:50,0.604,0.864,0.541,1.035,0.750,0.344,0.597,0.562,��,10.4,��
2022/08/13,20:00,0.605,0.864,0.541,1.034,0.749,0.345,0.596,0.563,��,10.4,�L
2022/08/13,20:10,0.606,0.862,0.542,1.036,0.747,0.344,0.595,0.562,��,8.2,�L
2022/08/13,20:20,0.605,0.863,0.542,1.034,0.749,0.343,0.597,0.562,��,9.5,�L
2022/08/13,20:30,0.605,0.865,0.541,1.034,0.750,0.344,0.597,0.561,��,9.6,�L
2022/08/13,20:40,0.604,0.864,0.542,1.035,0.749,0.344,0.596,0.563,��,9.0,�L
2022/08/13,20:50,0.605,0.863,0.542,1.034,0.751,0.343,0.598,0.563,��,8.0,�L
2022/08/13,21:00,0.606,0.862,0.541,1.034,0.750,0.344,0.596,0.562,��,6.6,�L
2022/08/13,21:10,0.605,0.863,0.540,1.033,0.748,0.343,0.596,0.562,��,7.5,�L
2022/08/13,21:20,0.605,0.863,0.542,1.034,0.749,0.344,0.597,0.561,��,6.2,��
2022/08/13,21:30,0.605,0.864,0.542,1.035,0.749,0.342,0.597,0.562,��,6.0,��
2022/08/13,21:40,0.606,0.863,0.541,1.035,0.750,0.343,0.596,0.563,��,6.1,��
2022/08/13,21:50,0.605,0.862,0.543,1.033,0.751,0.343,0.596,0.564,��,6.1,�L
2022/08/13,22:00,0.603,0.864,0.541,1.032,0.750,0.343,0.596,0.564,��쓌,5.5,�L
2022/08/13,22:10,0.604,0.863,0.540,1.035,0.747,0.343,0.595,0.562,��쓌,5.2,�L
2022/08/13,22:20,0.604,0.859,0.540,1.033,0.747,0.343,0.596,0.562,��쓌,5.7,�L
2022/08/13,22:30,0.605,0.860,0.540,1.035,0.746,0.342,0.595,0.561,��쓌,4.6,�L
2022/08/13,22:40,0.604,0.858,0.538,1.032,0.743,0.343,0.595,0.560,�쓌,2.8,�L
2022/08/13,22:50,0.596,0.843,0.533,1.022,0.730,0.340,0.590,0.554,��,3.5,�L
2022/08/13,23:00,0.586,0.835,0.530,1.020,0.728,0.339,0.590,0.553,��쓌,2.6,�L
2022/08/13,23:10,0.587,0.834,0.531,1.019,0.729,0.339,0.589,0.553,�쓌,4.5,�L
2022/08/13,23:20,0.585,0.831,0.527,1.015,0.723,0.339,0.587,0.552,�쓌,3.8,�L
2022/08/13,23:30,0.586,0.833,0.526,1.013,0.726,0.338,0.587,0.552,���쓌,3.6,��
2022/08/13,23:40,0.586,0.832,0.527,1.013,0.726,0.339,0.589,0.550,��,4.4,��
2022/08/13,23:50,0.587,0.832,0.526,1.015,0.726,0.339,0.587,0.552,���k��,4.0,��
